Wind_Speed
8 8 7 6 6 5 4 3 3 3 2 2 3 4 4 5 5 5 5 4 4 4 3 3 3 3 3 2 3 3 4 4 4 4 5 5 6 6 7 8 8 9 10 10 10 11 11 10 10
9 8 8 7 7 6 5 4 3 3 3 3 4 4 4 4 5 5 4 4 4 3 3 2 2 3 3 3 3 3 4 4 4 4 5 6 6 7 8 9 9 9 10 11 11 11 11 11 11
10 9 9 9 9 8 6 6 4 4 4 4 4 4 4 4 5 4 4 4 3 3 3 2 3 3 3 3 3 3 3 4 4 5 6 7 7 8 8 9 10 10 11 11 11 11 11 11 11
11 10 10 9 9 9 8 7 5 4 5 5 5 4 4 4 4 4 4 4 3 3 3 3 2 2 2 3 3 3 3 4 5 6 7 7 8 9 9 9 10 11 11 11 11 12 12 11 11
13 12 11 10 11 10 9 8 6 5 6 6 5 4 4 4 4 4 5 5 4 3 3 3 2 2 2 2 2 3 4 5 5 6 7 8 9 9 10 10 10 11 11 11 11 11 12 12 12
14 13 12 11 11 10 9 10 7 6 6 6 5 4 4 4 4 5 4 4 4 3 3 2 2 1 1 1 2 3 4 5 6 6 7 8 9 9 10 10 11 11 11 11 11 11 11 12 12
14 13 13 12 12 11 11 10 9 8 7 6 6 6 5 5 5 5 5 4 3 3 3 2 2 1 2 2 4 4 5 5 6 7 7 8 9 9 10 10 11 11 12 12 12 12 12 12 12
14 14 13 14 14 11 12 11 10 9 8 7 7 6 6 5 4 4 4 4 3 3 2 2 2 2 3 4 4 5 5 6 6 7 8 9 9 10 10 11 12 12 12 12 12 12 12 13 13
15 14 13 14 13 12 12 12 10 10 9 8 8 7 7 5 4 4 4 4 3 2 2 2 2 2 3 4 5 5 6 6 7 8 9 10 10 10 11 11 12 12 12 12 13 13 13 13 13
15 14 14 13 13 12 12 11 10 10 10 9 9 8 7 6 5 5 4 4 4 3 2 3 3 3 4 5 5 5 6 7 8 9 9 10 10 11 11 12 12 13 13 13 13 13 13 13 13
15 14 14 13 13 12 12 11 11 11 11 10 9 9 8 7 6 6 5 5 4 4 3 3 3 4 5 5 5 6 7 8 9 9 10 10 11 12 12 13 13 13 13 13 13 13 13 13 13
15 14 13 13 13 13 12 12 12 12 12 10 10 9 8 7 7 7 6 6 6 5 4 4 4 5 5 6 6 7 8 9 9 10 11 11 12 12 13 13 14 14 14 14 14 13 13 13 13
14 14 13 14 13 12 12 12 12 12 12 11 11 9 8 8 8 7 7 7 7 6 5 5 5 5 6 6 7 7 9 9 10 10 11 12 13 13 13 14 15 15 15 15 14 14 13 13 13
13 13 13 12 12 12 12 12 12 11 11 11 10 10 9 8 8 7 7 8 7 7 6 6 6 6 6 7 8 8 9 10 11 11 12 12 13 13 14 15 15 15 15 15 15 14 14 14 13
11 12 11 11 11 12 12 12 12 11 10 10 10 10 10 9 8 8 7 7 7 6 6 6 6 7 7 8 8 9 9 10 11 12 12 13 13 14 14 15 15 15 16 16 15 15 14 14 14
10 10 9 9 10 11 11 11 12 11 10 10 10 9 10 9 8 8 8 7 7 7 6 7 7 7 8 8 9 10 10 11 12 12 13 13 14 14 15 15 15 16 16 16 16 16 15 14 14
9 9 8 9 10 10 11 10 11 11 10 10 10 10 10 10 10 9 8 8 7 7 6 7 7 8 8 9 10 10 10 11 12 13 13 14 14 15 15 16 16 16 16 16 16 16 15 15 14
8 8 7 9 9 9 9 9 9 9 10 11 11 10 9 10 10 10 9 9 8 7 7 8 8 9 9 10 10 11 11 12 12 13 14 14 15 16 16 16 16 16 16 16 16 16 15 15 14
8 8 8 8 8 8 8 8 7 7 9 9 9 10 9 9 10 10 9 8 8 8 8 8 8 9 9 10 10 11 11 12 13 13 14 15 16 16 17 17 17 17 17 16 16 16 15 14 14
7 8 7 6 7 6 6 6 6 7 7 8 8 8 8 9 9 8 8 8 7 7 8 8 8 9 10 10 11 11 12 13 13 13 14 15 16 17 17 17 17 17 17 16 16 16 15 14 13
6 6 6 7 6 5 5 5 4 6 7 7 8 8 8 8 8 7 7 7 7 7 8 8 8 9 10 10 10 11 12 13 14 14 15 16 16 17 18 18 17 17 17 16 16 15 15 13 12
7 6 6 7 6 4 4 4 4 5 5 6 7 8 8 7 7 6 6 7 7 7 8 8 9 10 10 10 11 12 12 13 13 14 15 16 17 17 18 18 17 17 17 16 16 15 14 13 12
6 7 7 8 7 4 4 4 4 4 5 5 6 6 6 6 7 6 6 6 7 7 7 8 9 9 10 10 11 12 13 13 14 14 15 16 17 17 17 17 17 17 16 16 15 15 14 12 12
7 8 8 7 6 4 4 4 4 4 5 5 5 5 5 6 6 6 6 7 6 6 7 8 9 9 10 11 11 12 13 14 14 15 15 16 17 17 17 17 16 16 16 15 15 15 14 13 12
9 9 8 6 4 4 4 5 4 4 5 5 5 6 5 6 6 6 6 6 6 6 7 8 9 10 10 11 11 12 13 14 15 15 15 16 16 16 16 16 16 16 15 15 15 15 14 13 12
8 7 7 6 5 3 3 4 3 4 4 5 5 6 6 6 6 5 5 6 6 7 8 8 9 10 11 11 12 13 13 14 14 14 15 15 16 16 16 16 16 16 15 15 14 14 14 13 13
7 6 7 7 6 4 3 3 3 2 3 4 4 5 5 5 5 5 5 6 6 7 8 8 9 10 11 11 12 13 13 14 14 14 15 15 15 15 16 16 16 16 15 14 14 14 14 13 12
7 7 6 7 7 5 4 2 3 3 3 4 4 5 5 5 5 5 4 5 6 7 7 8 9 10 11 12 12 13 13 14 14 15 15 15 15 15 15 16 16 15 15 14 14 13 13 13 12
7 6 5 4 5 6 6 4 5 5 5 5 5 4 4 4 5 6 6 6 6 7 8 9 10 11 12 12 13 13 14 14 14 14 15 15 15 15 15 15 16 16 15 13 13 13 13 13 12
8 8 7 5 5 6 7 5 6 6 6 6 5 5 5 6 6 7 7 8 7 8 9 10 11 12 12 13 13 14 14 14 15 15 15 15 14 15 15 15 15 15 15 14 14 13 13 13 13
Wind_Direction
273 280 283 286 288 284 284 299 302 291 257 258 255 249 249 246 240 240 243 240 226 220 223 231 245 252 261 273 279 273 275 279 288 298 303 307 310 307 302 302 301 297 292 290 289 284 280 275 273
266 269 270 273 274 272 278 286 284 274 259 263 267 262 250 241 242 243 243 234 233 230 230 239 254 260 268 277 281 287 284 286 294 301 307 312 311 309 306 305 304 300 297 293 290 286 280 276 273
258 260 261 262 265 267 271 281 272 275 271 272 274 268 258 250 246 244 241 233 231 235 239 244 259 267 279 287 289 290 293 296 299 306 307 309 310 309 307 305 305 304 301 296 291 287 282 279 275
255 255 254 256 259 263 268 273 279 270 271 269 269 264 259 258 255 245 238 237 235 236 238 240 257 277 288 297 302 303 305 307 310 311 310 310 310 311 309 307 306 306 303 299 294 288 282 278 276
251 249 248 247 249 256 265 273 273 259 266 267 265 264 269 266 259 254 246 242 235 230 237 246 259 279 298 310 320 322 316 312 312 312 314 314 313 312 311 309 306 305 304 301 297 292 286 281 277
249 248 246 244 243 254 259 262 271 264 265 266 268 261 268 271 265 258 249 243 235 229 243 257 257 274 298 319 328 325 320 318 318 318 318 318 318 317 314 311 308 305 303 301 298 293 289 286 282
247 246 245 243 245 249 252 260 265 258 252 260 263 264 262 273 263 252 251 246 236 229 230 242 259 290 314 319 320 321 320 321 323 324 324 323 321 319 317 315 312 309 305 302 298 293 289 284 281
245 244 243 241 240 241 250 254 254 251 254 258 261 262 263 262 251 241 241 231 228 230 231 235 254 296 313 317 317 317 321 324 325 324 324 322 321 321 319 318 315 312 309 303 299 294 290 286 281
243 241 240 241 239 241 244 245 246 247 248 251 253 262 262 252 241 234 232 232 235 241 254 267 276 295 320 322 322 322 324 327 326 324 324 323 323 322 320 318 316 315 312 308 304 298 293 288 284
239 238 237 240 242 242 241 243 246 244 240 240 247 251 253 249 239 237 236 236 239 247 262 274 288 303 319 324 326 326 325 326 327 325 324 324 323 322 320 320 319 318 315 311 307 302 296 291 285
234 238 238 239 244 242 244 244 243 243 241 241 248 247 247 244 239 239 239 242 243 250 262 277 291 306 317 322 325 325 325 325 327 326 325 324 322 322 322 322 320 319 316 310 306 303 298 292 284
233 236 236 242 245 246 247 245 246 243 241 241 246 245 246 243 238 239 246 248 246 252 260 273 288 307 319 322 324 325 326 328 328 326 326 325 324 323 323 322 322 321 319 313 307 302 298 293 286
229 235 238 241 240 244 245 244 242 241 239 240 243 246 250 248 246 247 251 253 256 257 263 275 288 304 318 322 323 326 328 330 329 326 325 325 325 324 323 322 322 321 320 316 311 305 300 293 286
228 231 234 237 241 243 240 240 237 238 238 238 242 245 246 242 243 249 254 256 258 256 263 274 289 303 314 318 321 324 325 327 329 329 326 325 325 324 323 322 321 320 318 315 311 307 301 295 288
223 227 231 235 237 237 238 237 233 235 238 238 244 244 246 246 245 251 252 257 258 262 268 276 287 300 310 316 319 320 321 324 326 328 327 326 325 323 322 323 322 320 318 315 312 307 301 296 289
222 225 228 232 232 234 234 227 228 231 232 236 243 242 239 242 246 252 252 259 262 269 271 275 288 299 308 314 316 318 320 321 323 325 326 326 326 325 324 323 322 320 317 315 313 309 303 297 291
214 223 221 227 230 230 232 228 227 225 232 236 240 241 239 244 249 255 258 264 269 269 274 279 289 301 307 310 314 315 317 318 321 324 325 325 326 327 326 325 323 321 318 316 315 311 305 298 291
204 211 212 220 225 226 228 232 228 226 234 241 240 240 242 241 249 255 261 263 266 268 274 282 293 300 302 307 311 312 315 317 319 322 324 326 327 327 326 326 324 322 320 318 318 314 308 300 292
192 196 208 217 213 218 224 226 212 224 231 233 235 239 243 243 245 247 256 259 263 270 279 285 293 298 300 305 308 309 313 316 318 320 323 326 328 327 326 326 324 323 322 320 318 317 311 303 295
192 199 202 202 201 212 210 214 213 224 226 226 231 241 247 246 250 246 254 262 265 273 281 285 292 296 303 306 308 310 312 315 317 318 321 325 326 326 327 327 326 324 323 322 319 317 314 307 300
187 194 191 180 178 176 186 200 214 220 229 228 230 234 240 239 244 248 255 258 266 276 284 288 294 297 301 305 307 310 311 313 315 316 321 324 325 326 328 327 327 326 324 323 321 319 316 309 303
180 176 168 161 160 166 190 191 209 216 221 226 227 231 234 234 237 242 255 258 266 275 284 291 295 299 300 303 308 311 311 312 314 317 320 323 325 326 327 327 328 328 327 326 324 321 320 313 306
169 168 155 148 144 152 190 200 194 220 221 219 225 227 229 231 230 240 249 261 265 276 286 292 297 300 300 302 305 309 311 314 315 316 319 322 324 327 328 329 330 330 330 329 328 325 323 317 310
161 155 147 145 151 174 194 212 204 221 218 222 228 231 228 231 234 240 247 257 267 280 291 297 299 301 302 303 305 307 310 314 315 317 320 323 325 328 329 330 331 331 332 332 331 329 326 321 314
156 155 151 152 156 164 199 220 219 224 229 231 233 239 246 244 241 246 255 264 273 287 296 300 303 306 307 306 307 309 312 315 316 319 322 323 325 328 330 330 331 331 332 333 333 332 330 324 320
162 159 164 159 155 163 239 240 234 232 235 236 242 245 256 253 247 253 265 274 283 290 294 301 305 308 308 308 310 311 313 315 318 321 324 326 328 328 330 330 331 331 331 333 335 333 331 331 327
164 151 150 146 153 181 231 244 257 261 252 251 255 249 253 253 253 263 272 278 286 293 296 300 304 306 307 309 312 313 314 316 318 320 323 326 329 331 332 332 333 331 331 332 335 336 336 335 332
158 149 157 161 171 188 219 259 293 277 285 283 276 267 256 258 263 271 281 287 292 297 299 302 305 308 310 310 313 316 317 318 319 320 322 324 328 330 332 333 333 334 332 331 334 336 338 337 335
166 162 163 168 181 190 211 237 284 287 281 277 275 270 264 258 264 274 283 291 295 299 303 305 307 309 311 312 313 316 318 318 318 320 323 325 326 327 329 331 333 333 332 330 332 335 336 336 336
184 180 183 191 201 212 232 243 263 272 277 281 275 265 267 267 273 279 283 289 296 299 300 303 307 309 311 312 313 314 315 316 317 318 320 323 324 327 329 330 330 331 332 331 329 332 335 336 335
Height
5859 5859 5860 5860 5861 5860 5859 5859 5858 5859 5859 5859 5859 5859 5860 5861 5863 5866 5864 5864 5865 5865 5866 5866 5867 5867 5867 5867 5868 5868 5868 5868 5869 5869 5869 5869 5869 5868 5868 5868 5868 5868 5868 5868 5868 5868 5868 5868 5868
5857 5858 5859 5860 5859 5859 5858 5857 5858 5858 5859 5859 5859 5859 5860 5861 5862 5862 5862 5863 5864 5865 5865 5866 5866 5867 5867 5867 5867 5867 5867 5868 5868 5868 5868 5868 5868 5868 5867 5867 5867 5867 5866 5866 5866 5866 5866 5866 5866
5855 5856 5858 5858 5857 5857 5857 5856 5857 5858 5858 5858 5859 5860 5860 5861 5861 5862 5862 5863 5864 5865 5865 5865 5866 5866 5866 5867 5867 5867 5867 5867 5867 5867 5867 5867 5867 5867 5866 5866 5866 5865 5865 5864 5864 5864 5864 5864 5864
5853 5855 5856 5857 5856 5855 5855 5855 5856 5857 5858 5858 5858 5859 5859 5860 5861 5861 5862 5863 5864 5864 5865 5865 5865 5866 5866 5866 5866 5866 5867 5867 5867 5867 5867 5866 5866 5866 5865 5865 5864 5864 5863 5863 5862 5862 5862 5862 5862
5850 5852 5853 5854 5854 5853 5853 5854 5854 5856 5857 5857 5858 5858 5859 5859 5860 5861 5861 5862 5863 5864 5864 5865 5865 5865 5866 5866 5866 5866 5866 5866 5866 5866 5866 5865 5865 5864 5864 5863 5863 5862 5861 5861 5860 5860 5860 5860 5860
5848 5849 5851 5851 5851 5851 5852 5853 5853 5855 5856 5856 5857 5858 5858 5859 5859 5860 5861 5862 5863 5864 5864 5864 5865 5865 5865 5866 5866 5866 5865 5865 5865 5865 5864 5864 5864 5863 5862 5862 5861 5860 5859 5859 5858 5858 5857 5857 5857
5846 5847 5847 5848 5849 5849 5851 5851 5853 5854 5854 5855 5856 5857 5857 5858 5859 5860 5860 5861 5862 5863 5864 5864 5865 5865 5865 5865 5865 5865 5865 5865 5864 5864 5863 5863 5862 5862 5861 5860 5859 5858 5857 5856 5856 5855 5855 5855 5855
5842 5844 5844 5845 5847 5848 5849 5850 5851 5852 5853 5854 5855 5856 5857 5857 5858 5859 5860 5861 5862 5862 5863 5864 5865 5865 5865 5865 5865 5864 5864 5864 5863 5863 5862 5862 5861 5860 5859 5858 5857 5856 5855 5854 5853 5853 5852 5852 5852
5838 5842 5842 5843 5844 5845 5847 5848 5850 5851 5852 5853 5855 5856 5856 5856 5857 5858 5859 5860 5861 5862 5863 5863 5864 5864 5865 5864 5864 5864 5863 5863 5862 5862 5861 5860 5860 5859 5858 5857 5856 5854 5853 5852 5851 5850 5850 5849 5849
5836 5838 5839 5840 5842 5843 5845 5847 5848 5850 5851 5852 5853 5854 5854 5855 5857 5858 5859 5860 5860 5861 5862 5863 5863 5864 5864 5864 5863 5863 5863 5862 5862 5861 5860 5859 5858 5857 5856 5855 5853 5852 5851 5849 5848 5847 5847 5846 5846
5833 5835 5836 5837 5839 5841 5843 5845 5846 5848 5849 5850 5851 5853 5854 5854 5856 5857 5858 5859 5860 5861 5861 5862 5862 5863 5863 5863 5862 5862 5862 5861 5860 5860 5859 5858 5856 5855 5854 5853 5851 5850 5848 5847 5846 5845 5844 5843 5843
5830 5831 5833 5835 5837 5839 5840 5842 5844 5846 5847 5848 5850 5850 5852 5854 5855 5856 5857 5858 5859 5860 5861 5861 5862 5862 5862 5862 5861 5861 5860 5860 5859 5858 5857 5856 5855 5853 5852 5851 5849 5847 5846 5844 5843 5842 5841 5840 5840
5827 5830 5832 5833 5835 5837 5839 5841 5842 5844 5845 5847 5849 5849 5851 5852 5853 5855 5856 5857 5858 5859 5860 5860 5860 5861 5861 5860 5860 5860 5859 5859 5858 5856 5855 5854 5853 5851 5850 5848 5847 5845 5843 5842 5840 5839 5838 5837 5837
5825 5828 5830 5831 5833 5835 5838 5839 5841 5842 5843 5845 5847 5849 5850 5851 5853 5854 5855 5856 5857 5858 5858 5859 5859 5859 5859 5859 5859 5858 5858 5857 5856 5855 5854 5852 5851 5849 5848 5846 5844 5842 5840 5839 5837 5836 5835 5834 5833
5823 5826 5828 5830 5832 5834 5836 5838 5839 5841 5842 5844 5846 5848 5849 5850 5852 5853 5854 5855 5856 5856 5857 5858 5858 5858 5858 5858 5858 5857 5857 5856 5855 5854 5852 5851 5849 5847 5845 5844 5842 5840 5838 5836 5834 5833 5831 5831 5830
5822 5824 5827 5829 5830 5832 5836 5837 5838 5839 5841 5843 5845 5846 5848 5849 5850 5852 5853 5854 5854 5855 5856 5856 5857 5857 5857 5857 5856 5856 5855 5854 5853 5852 5850 5849 5847 5845 5843 5841 5839 5837 5835 5833 5831 5829 5828 5827 5826
5821 5823 5825 5827 5829 5831 5833 5834 5836 5838 5840 5842 5844 5845 5846 5848 5849 5851 5851 5852 5853 5854 5855 5855 5855 5855 5855 5855 5855 5854 5854 5853 5852 5850 5849 5847 5845 5843 5841 5839 5837 5834 5832 5830 5828 5826 5825 5823 5823
5821 5822 5824 5826 5829 5831 5832 5833 5834 5837 5839 5841 5842 5844 5845 5847 5849 5849 5850 5851 5852 5853 5853 5854 5854 5854 5854 5854 5854 5853 5852 5851 5850 5849 5847 5845 5843 5841 5839 5837 5834 5832 5829 5827 5825 5823 5821 5820 5819
5820 5822 5824 5825 5827 5830 5831 5832 5833 5835 5837 5839 5841 5842 5844 5845 5847 5848 5849 5850 5851 5852 5852 5852 5853 5852 5853 5852 5852 5851 5851 5850 5848 5847 5845 5843 5841 5839 5836 5834 5831 5829 5826 5824 5822 5820 5818 5816 5815
5820 5822 5823 5825 5827 5829 5830 5832 5833 5835 5836 5838 5840 5841 5842 5843 5845 5845 5847 5849 5849 5850 5850 5851 5851 5851 5851 5851 5850 5850 5849 5848 5847 5845 5843 5841 5839 5837 5834 5832 5829 5826 5824 5821 5819 5817 5814 5813 5812
5820 5822 5824 5825 5827 5828 5830 5832 5833 5835 5836 5838 5839 5840 5841 5842 5844 5845 5846 5847 5848 5849 5849 5849 5849 5849 5849 5849 5848 5848 5847 5846 5845 5843 5841 5839 5837 5834 5832 5829 5826 5824 5821 5818 5816 5814 5811 5810 5809
5821 5823 5824 5826 5827 5829 5831 5832 5833 5834 5835 5837 5838 5839 5840 5842 5843 5844 5845 5846 5846 5847 5847 5847 5847 5847 5847 5847 5846 5846 5845 5844 5843 5841 5839 5837 5835 5832 5829 5827 5824 5821 5819 5816 5813 5811 5809 5807 5806
5822 5823 5825 5826 5827 5829 5830 5831 5833 5833 5835 5836 5837 5838 5839 5840 5842 5843 5843 5844 5845 5846 5846 5846 5846 5846 5845 5845 5845 5844 5843 5842 5840 5839 5837 5835 5832 5830 5827 5824 5822 5819 5816 5814 5811 5809 5807 5805 5804
5823 5824 5826 5826 5828 5829 5831 5831 5833 5833 5835 5836 5836 5837 5838 5839 5840 5841 5842 5843 5843 5844 5844 5844 5844 5844 5843 5843 5843 5842 5841 5840 5838 5836 5834 5832 5830 5827 5825 5822 5820 5817 5815 5812 5810 5807 5805 5803 5801
5823 5825 5826 5827 5828 5830 5831 5832 5833 5834 5834 5835 5836 5836 5837 5838 5839 5840 5841 5841 5842 5842 5842 5842 5842 5842 5841 5841 5840 5840 5839 5837 5836 5834 5832 5830 5828 5825 5823 5820 5818 5815 5813 5810 5808 5805 5803 5801 5799
5823 5825 5827 5828 5829 5831 5831 5831 5833 5833 5834 5834 5835 5836 5836 5837 5838 5839 5839 5840 5840 5840 5840 5840 5840 5840 5839 5839 5838 5837 5836 5835 5833 5831 5830 5827 5825 5823 5820 5818 5816 5813 5811 5809 5806 5804 5802 5799 5798
5824 5824 5827 5828 5829 5831 5832 5832 5832 5833 5833 5833 5834 5835 5835 5836 5837 5838 5838 5838 5839 5839 5839 5839 5838 5838 5837 5836 5835 5834 5833 5832 5831 5829 5827 5825 5823 5821 5818 5816 5814 5811 5809 5807 5805 5802 5800 5798 5796
5825 5825 5826 5828 5829 5831 5832 5832 5832 5832 5833 5833 5833 5833 5834 5835 5836 5836 5837 5837 5837 5837 5837 5837 5836 5836 5835 5834 5833 5832 5831 5829 5828 5826 5825 5823 5821 5819 5817 5814 5812 5810 5807 5805 5803 5801 5799 5797 5795
5826 5827 5827 5828 5829 5830 5831 5834 5832 5832 5833 5833 5833 5833 5833 5834 5835 5835 5835 5836 5836 5836 5835 5835 5834 5834 5833 5832 5831 5830 5828 5827 5825 5824 5822 5820 5818 5817 5815 5812 5810 5808 5806 5804 5802 5800 5797 5795 5794
5825 5826 5827 5828 5829 5829 5830 5834 5831 5832 5832 5832 5832 5832 5832 5833 5833 5834 5834 5834 5834 5834 5833 5833 5832 5831 5830 5829 5828 5827 5825 5824 5822 5821 5819 5818 5816 5814 5812 5810 5808 5806 5804 5802 5800 5798 5796 5794 5792